[[{"header":{"parameterUnit":"m.s-1","parameterCategory":1,"la1":30.2991,"la2":30.254,"lo1":-89.0895,"lo2":-89.0444,"dy":0.0017,"dx":0.0017,"nx":28,"ny":28,"refTime":"2023-09-24T03:00:00:Z","depth":0,"parameterNumber":2,"parameterNumberName":"U-component_of_WINDS"},"data":[0,0,0,0,0,0,0,0,0,0,0,0,0,0,0,0,0,0,0,0,0,0,0,0,0,0,0,0,0,0,0,0,0,0,0,0,0,0,0,0,0,0,0,0,0,0,0,0,0,0,0,0,0,0,0,0,0,0,2.1699,2.1699,0,2.1705,2.1705,2.1705,2.1671,2.167,2.1669,2.1668,2.1672,2.1673,2.1674,0,0,0,0,0,0,0,0,0,0,0,0,0,2.1655,2.1656,2.1699,2.1699,2.17,2.1705,2.1705,2.1705,2.1671,2.167,2.1669,2.1668,2.1672,2.1673,2.1674,0,0,0,0,0,0,0,0,0,0,0,0,0,2.1669,2.1656,2.1699,2.1683,2.1682,2.1705,2.1705,2.1705,2.1671,2.167,2.1668,2.1667,2.1671,2.1673,2.1674,2.1713,0,0,2.1679,2.168,0,0,0,0,0,0,0,0,2.1668,2.167,2.1685,2.1684,2.1683,2.1686,2.1691,2.1708,2.1672,2.1675,2.1668,2.1666,2.1678,2.1679,2.1683,2.1713,2.1713,2.1679,2.168,2.1681,2.1681,0,0,0,0,0,0,0,2.1667,2.167,2.1702,2.1686,2.1684,2.1674,2.1675,2.1694,2.1684,2.1675,2.1672,2.1674,2.1677,2.1681,2.1683,2.1713,2.1679,2.168,2.1681,2.1682,2.177,2.1772,0,0,0,0,0,0,2.1669,2.1669,2.1701,2.1702,2.1672,2.1676,2.1677,2.1686,2.1684,2.1683,2.1675,2.1672,2.168,2.1681,2.1683,2.1724,2.1681,2.1682,2.1683,2.1769,2.177,2.1772,0,0,0,0,0,0,2.1668,2.1672,2.1701,2.1685,2.1688,2.1679,2.169,2.1687,2.1692,2.1684,2.1682,2.1682,2.1678,2.168,2.1705,2.1724,2.1683,2.1684,2.1767,2.1769,2.1771,2.1809,0,0,0,0,0,0,2.1667,2.1672,2.1688,2.1685,2.1689,2.1724,2.1691,2.1688,2.1695,2.1691,2.169,2.1688,2.1677,2.1702,2.1706,2.1725,2.1685,2.1765,2.1768,2.1771,2.1806,2.1813,2.1818,0,0,0,0,0,2.1665,2.1699,2.1689,2.1693,2.1708,2.1726,2.1727,2.1715,2.1697,2.1711,2.1706,2.1688,2.1722,2.1705,2.1709,2.1729,2.1764,2.1767,2.177,2.1804,2.1811,2.1818,0,0,0,0,0,0,2.1704,2.1698,2.1687,2.1721,2.1724,2.172,2.1738,2.1724,2.1732,2.1728,2.1711,2.1711,2.1737,2.1736,2.1718,2.1764,2.1739,2.1743,2.1763,2.1771,2.1776,2.1775,2.1687,0,0,0,0,0,2.1716,2.1731,2.1726,2.1756,2.1758,2.1748,2.1755,2.1745,2.1747,2.1748,2.1744,2.1746,2.1756,2.1764,2.1773,2.1806,2.1804,2.1822,2.1827,2.1832,2.1835,2.1848,2.1855,2.1783,2.1783,2.1783,0,0,2.1742,2.1741,2.1752,2.1764,2.1765,2.1779,2.1749,2.1767,2.1776,2.175,2.1772,2.1769,2.177,2.1798,2.181,2.1797,2.1855,2.1836,2.184,2.1841,2.1852,2.1859,2.1865,2.1785,2.1784,2.1784,0,0,2.1795,2.1798,2.1821,2.1823,2.1824,2.1817,2.1822,2.182,2.1817,2.1838,2.1818,2.1829,2.1848,2.1848,2.1851,2.1901,2.1884,2.1905,2.1934,2.1947,2.1953,2.1958,2.1972,2.1978,2.1908,2.1908,2.1908,0,2.1827,2.1849,2.1835,2.1853,2.1857,2.1834,2.1856,2.1858,2.1862,2.1865,2.1851,2.1872,2.1872,2.1897,2.1909,2.1913,2.1917,2.1904,2.1954,2.1958,2.1963,2.1976,2.1982,2.1911,2.191,2.191,2.191,0,2.1886,2.1901,2.1919,2.1923,2.193,2.195,2.1938,2.1946,2.1934,2.1927,2.1947,2.1946,2.1952,2.1958,2.1948,2.1981,2.1972,2.1957,2.1931,2.1972,2.1984,2.199,2.1914,2.1913,2.1912,2.1912,0,0,2.1964,2.1958,2.1965,2.1965,2.1964,2.1974,2.1992,2.1998,2.2004,2.2008,2.202,2.2035,2.2019,2.2022,2.2011,2.2023,2.2058,2.2005,2.2005,2.2013,2.2091,2.2101,2.2107,2.2048,2.2049,2.205,2.2089,0,2.2014,2.2044,2.203,2.2061,2.2072,2.2049,2.2064,2.2064,2.2057,2.2065,2.2058,2.2068,2.2048,2.2049,2.206,2.2052,2.2073,2.2049,2.2057,2.2057,2.2055,2.2114,2.2126,2.2163,2.2095,2.2095,2.2096,0,2.2076,2.208,2.2112,2.2105,2.2109,2.2123,2.2126,2.2135,2.2133,2.2127,2.2129,2.2114,2.2128,2.2105,2.2122,2.2106,2.2108,2.2105,2.2106,2.2104,2.2078,2.2111,2.2176,2.218,2.2104,2.2104,2.2103,0,2.2125,2.214,2.2159,2.216,2.2154,2.2163,2.2161,2.2158,2.2161,2.2163,2.2165,2.2169,2.2171,2.2174,2.2159,2.2144,2.2177,2.2154,2.2171,2.2171,2.2177,2.2177,2.224,2.2183,2.2183,2.2183,2.2183,0,2.218,2.22,2.2181,2.2193,2.2212,2.2196,2.2216,2.2211,2.2208,2.2216,2.2197,2.2206,2.2188,2.2194,2.2183,2.2197,2.2199,2.2193,2.2189,2.2193,2.2193,2.2193,2.2189,2.2185,2.2184,2.2184,2.2184,0,2.2239,2.2227,2.2246,2.2238,2.2236,2.2251,2.2243,2.2252,2.2244,2.2255,2.2257,2.2243,2.2249,2.2235,2.224,2.2232,2.2251,2.2245,2.2252,2.2249,2.2266,2.2263,2.2329,2.2335,2.2277,2.2278,2.2278,0,2.2273,2.2287,2.228,2.2284,2.2282,2.229,2.2293,2.2277,2.2281,2.2278,2.2287,2.2291,2.2293,2.2303,2.2293,2.2295,2.2287,2.2309,2.2287,2.2289,2.2283,2.2281,2.2281,2.2313,2.2314,2.2315,2.2315,0,2.2335,2.2328,2.2333,2.2335,2.2339,2.234,2.234,2.2344,2.2327,2.2331,2.2337,2.2338,2.2341,2.2345,2.2344,2.234,2.2323,2.2322,2.2326,2.2329,2.2331,2.2327,2.2262,2.2321,2.232,2.232,2.2319,2.2319,2.238,2.239,2.2385,2.239,2.2388,2.2388,2.2395,2.2387,2.2391,2.2392,2.2382,2.2389,2.2383,2.2381,2.2378,2.2382,2.2371,2.2377,2.2378,2.2379,2.2381,2.2332,2.2382,2.2382,2.2382,2.2382,2.2381,0,2.2438,2.2433,2.2438,2.2437,2.2441,2.2426,2.2424,2.2427,2.2433,2.243,2.2432,2.2436,2.2438,2.2428,2.2428,2.2433,2.2425,2.2433,2.2431,2.243,2.2392,2.2387,2.2439,2.2439,2.2439,2.2439,2.2439,2.2439,2.2468,2.2482,2.2474,2.2486,2.2481,2.2487,2.2487,2.2485,2.2482,2.2488,2.2489,2.2483,2.2475,2.2474,2.2475,2.2471,2.2471,2.2481,2.2475,2.2439,2.2433,2.2428,2.2423,2.2482,2.2482,2.2513,2.2513,2.2513]},{"header":{"parameterUnit":"m.s-1","parameterCategory":1,"la1":30.2991,"la2":30.254,"lo1":-89.0895,"lo2":-89.0444,"dy":0.0017,"dx":0.0017,"nx":28,"ny":28,"refTime":"2023-09-24T03:00:00:Z","depth":0,"parameterNumber":3,"parameterNumberName":"V-component_of_WINDS"},"data":[0,0,0,0,0,0,0,0,0,0,0,0,0,0,0,0,0,0,0,0,0,0,0,0,0,0,0,0,0,0,0,0,0,0,0,0,0,0,0,0,0,0,0,0,0,0,0,0,0,0,0,0,0,0,0,0,0,0,3.5342,3.5343,0,3.5433,3.5434,3.5435,3.5412,3.541,3.5408,3.5406,3.5494,3.5498,3.5502,0,0,0,0,0,0,0,0,0,0,0,0,0,3.5141,3.5145,3.5342,3.5343,3.5344,3.5433,3.5434,3.5435,3.5412,3.541,3.5408,3.5406,3.5493,3.5498,3.5503,0,0,0,0,0,0,0,0,0,0,0,0,0,3.523,3.5146,3.5342,3.5343,3.5344,3.5432,3.5434,3.5436,3.5412,3.541,3.5407,3.5405,3.5492,3.5497,3.5503,3.5594,0,0,3.5522,3.5524,0,0,0,0,0,0,0,0,3.5225,3.5237,3.5342,3.5343,3.5345,3.5408,3.5395,3.5488,3.5413,3.5386,3.5406,3.5403,3.5468,3.5475,3.5498,3.5598,3.5602,3.5522,3.5526,3.5528,3.553,0,0,0,0,0,0,0,3.5219,3.5233,3.5378,3.5343,3.5345,3.5337,3.5347,3.5413,3.5441,3.5388,3.5387,3.5398,3.5468,3.5492,3.55,3.5603,3.5522,3.5527,3.5531,3.5533,3.5778,3.5781,0,0,0,0,0,0,3.5212,3.5228,3.5375,3.538,3.5277,3.5343,3.5354,3.539,3.544,3.5445,3.5401,3.5397,3.5483,3.5493,3.5503,3.561,3.5528,3.5534,3.5537,3.5775,3.5779,3.5782,0,0,0,0,0,0,3.5208,3.5226,3.5371,3.5304,3.5322,3.5349,3.5391,3.5394,3.5418,3.5449,3.5453,3.5421,3.5482,3.5495,3.5571,3.5613,3.5537,3.5542,3.5772,3.5776,3.578,3.5826,0,0,0,0,0,0,3.5202,3.5224,3.5261,3.5305,3.5326,3.544,3.5393,3.5397,3.5429,3.5426,3.547,3.5474,3.5481,3.5562,3.5577,3.562,3.5547,3.5768,3.5774,3.5779,3.5821,3.5832,3.5841,0,0,0,0,0,3.5195,3.527,3.5263,3.528,3.5372,3.5442,3.5454,3.5461,3.5433,3.5468,3.5488,3.5473,3.5606,3.557,3.5587,3.5632,3.5765,3.5772,3.5778,3.5817,3.583,3.5841,0,0,0,0,0,0,3.5228,3.5276,3.5268,3.536,3.5397,3.5438,3.5484,3.5475,3.552,3.5515,3.552,3.553,3.5608,3.5628,3.5587,3.572,3.5681,3.5691,3.5705,3.5717,3.5727,3.572,3.5552,0,0,0,0,0,3.5246,3.5302,3.5339,3.5416,3.5435,3.5456,3.5487,3.5489,3.5528,3.5543,3.5568,3.5605,3.5654,3.5687,3.5735,3.5824,3.5832,3.5863,3.5873,3.5881,3.5889,3.5935,3.5948,3.5803,3.5803,3.5803,0,0,3.5284,3.5317,3.5351,3.5423,3.5453,3.5507,3.547,3.553,3.5569,3.5552,3.5626,3.5645,3.5685,3.5768,3.5806,3.5787,3.5931,3.5889,3.5895,3.5899,3.5943,3.5956,3.5969,3.5808,3.5807,3.5806,0,0,3.538,3.5411,3.5478,3.5508,3.5553,3.5566,3.5582,3.5624,3.5637,3.5711,3.5698,3.5744,3.5831,3.586,3.5886,3.599,3.5977,3.6005,3.6056,3.6101,3.6112,3.6122,3.6157,3.617,3.6014,3.6014,3.6014,0,3.542,3.5504,3.5512,3.5573,3.5604,3.5592,3.5657,3.5685,3.5743,3.5764,3.5742,3.5849,3.5876,3.5963,3.5989,3.6011,3.6027,3.6,3.611,3.612,3.613,3.6163,3.6177,3.6017,3.6017,3.6016,3.6016,0,3.555,3.5608,3.5656,3.5713,3.575,3.5812,3.5828,3.5863,3.5861,3.5876,3.595,3.5981,3.6034,3.6055,3.6054,3.6142,3.6129,3.6109,3.6069,3.6147,3.6178,3.6191,3.6021,3.602,3.6019,3.6019,0,0,3.5671,3.5731,3.5748,3.5772,3.5821,3.5864,3.5925,3.5978,3.6007,3.6047,3.6096,3.6168,3.615,3.6179,3.6181,3.622,3.6298,3.6195,3.6196,3.6211,3.6394,3.6407,3.6422,3.629,3.6292,3.6294,3.6389,0,3.5769,3.5879,3.5887,3.5984,3.6036,3.6024,3.6076,3.611,3.6125,3.6169,3.6184,3.6235,3.6208,3.6225,3.6263,3.628,3.6334,3.6274,3.6333,3.6335,3.6322,3.6439,3.6454,3.6543,3.6402,3.6404,3.6406,0,3.59,3.5944,3.6047,3.6086,3.6108,3.6155,3.6203,3.6246,3.6283,3.629,3.6323,3.6318,3.6378,3.6337,3.6417,3.6376,3.64,3.6412,3.6416,3.642,3.6374,3.6445,3.6571,3.6584,3.6425,3.6424,3.6422,0,3.5974,3.606,3.6132,3.6154,3.6201,3.6234,3.6255,3.6289,3.632,3.6361,3.638,3.6427,3.6452,3.6487,3.6494,3.6464,3.6574,3.6534,3.658,3.6579,3.6603,3.6601,3.6733,3.6621,3.6621,3.6621,3.662,0,3.6083,3.6146,3.6166,3.621,3.6279,3.6286,3.6353,3.6372,3.6402,3.6448,3.644,3.6482,3.649,3.6533,3.654,3.6604,3.6615,3.6621,3.6622,3.6621,3.662,3.6637,3.663,3.6624,3.6623,3.6623,3.6622,0,3.6178,3.6194,3.6272,3.631,3.6321,3.637,3.6401,3.6442,3.6455,3.6513,3.6527,3.6547,3.6597,3.6608,3.6668,3.6672,3.6747,3.6743,3.6735,3.6735,3.6779,3.6774,3.6924,3.6944,3.6821,3.6822,3.6823,0,3.6246,3.6294,3.6338,3.6368,3.6391,3.644,3.6471,3.6479,3.6511,3.6555,3.659,3.664,3.668,3.6761,3.6779,3.6824,3.6819,3.6869,3.6826,3.6823,3.6817,3.6814,3.6818,3.6877,3.6878,3.6879,3.688,0,3.6364,3.6369,3.6415,3.6463,3.65,3.6538,3.6574,3.6599,3.6611,3.6647,3.6699,3.6731,3.6791,3.684,3.6884,3.6903,3.6893,3.6893,3.6906,3.6905,3.6898,3.6901,3.6756,3.689,3.6889,3.6888,3.6888,3.6887,3.6446,3.6487,3.6524,3.6574,3.6602,3.6636,3.6675,3.6694,3.6738,3.6789,3.679,3.6846,3.6878,3.6938,3.6959,3.7001,3.6985,3.7004,3.7008,3.7013,3.7016,3.6893,3.7009,3.7009,3.7009,3.7009,3.7008,0,3.6562,3.6584,3.6631,3.6682,3.6721,3.6709,3.6748,3.678,3.683,3.6862,3.6902,3.696,3.7007,3.7028,3.7074,3.7103,3.7099,3.7114,3.7111,3.7115,3.7028,3.7012,3.7116,3.7116,3.7116,3.7116,3.7116,3.7116,3.6626,3.6695,3.6704,3.6785,3.6807,3.6862,3.6885,3.6915,3.694,3.7006,3.7045,3.7059,3.7087,3.7133,3.7174,3.7179,3.7195,3.7212,3.7215,3.7133,3.7122,3.7111,3.7096,3.7216,3.7217,3.7298,3.7299,3.73]}]]